Terminal Aerodrome Forecast
Issued by NWS North Platte, NE

Home | Current Version | Previous Version | Text Only | Print | Product List | Glossary On
Versions: 1 2 3 4 5 6 7 8 9 10 11 12 13 14 15 16 17 18
018
FTUS43 KLBF 011051 AAA
TAFLBF
TAF AMD
KLBF 011051Z 0111/0206 35013KT P6SM OVC025
      TEMPO 0111/0114 -RA BKN015
     FM011500 36012KT P6SM OVC020
     FM011900 36013KT P6SM BKN035
     FM012200 01010KT P6SM BKN050
     FM020200 VRB06KT P6SM SCT080=

USA.gov is the U.S. government's official web portal to all federal, state and local government web resources and services.